Weather reports worldwide

Advertisment
Gueret-St Laurent, France (7361): temperature & dewpoint: 16.09.2018 23:00:00 - 22.09.2018 23:00:00 (CEST)Gueret-St Laurent, France (7361): temperature 5cm: 16.09.2018 23:00:00 - 22.09.2018 23:00:00 (CEST)Gueret-St Laurent, France (7361): temperature -20cm & temperature -100cm: 16.09.2018 23:00:00 - 22.09.2018 23:00:00 (CEST)Gueret-St Laurent, France (7361): wind speed & gusts: 16.09.2018 23:00:00 - 22.09.2018 23:00:00 (CEST)Gueret-St Laurent, France (7361): wind direction: 16.09.2018 23:00:00 - 22.09.2018 23:00:00 (CEST)Gueret-St Laurent, France (7361): reduced air pressure: 16.09.2018 23:00:00 - 22.09.2018 23:00:00 (CEST)Gueret-St Laurent, France (7361): visibility: 16.09.2018 23:00:00 - 22.09.2018 23:00:00 (CEST)Gueret-St Laurent, France (7361): sunshine duration: 16.09.2018 23:00:00 - 22.09.2018 23:00:00 (CEST)Gueret-St Laurent, France (7361): precipitation: 16.09.2018 23:00:00 - 22.09.2018 23:00:00 (CEST)
Date & Time tt [°C] td [°C] tt 5cm [°C] tt -20cm [°C] tt -100cm [°C] ff [km/h] ff [kn] fx [km/h] fx [kn] dd ppp [hPa] vv [km] sd [min] rr [mm]
22.09.2018 23:00:00 18,7 8,6 18,1 19,0 19,2 18 10 32 17 S 1021,9 20 0 0,0
22.09.2018 22:00:00 18,7 9,2 18,1 19,0 19,2 9 5 26 14 SSW 1022,2 20 0 0,0
22.09.2018 21:00:00 18,7 8,6 17,3 18,9 19,2 12 7 24 13 SSW 1021,8 20 0 0,0
22.09.2018 20:00:00 19,2 8,2 18,6 18,9 19,1 6 3 16 9 SW 1021,5 20 10 0,0
22.09.2018 19:00:00 20,1 7,1 20,2 18,8 19,2 10 5 27 15 SSW 1021,1 20 23 0,0
22.09.2018 18:00:00 21,7 6,0 22,6 18,8 19,2 13 7 29 16 SSW 1020,7 20 38 0,0
22.09.2018 17:00:00 21,8 6,1 23,2 18,8 19,2 10 5 31 17 WSW 1021,0 20 40 0,0
22.09.2018 16:00:00 22,3 6,1 25,1 18,7 19,1 11 6 31 17 SSW 1021,0 20 54 0,0
22.09.2018 15:00:00 21,4 7,2 28,1 18,8 19,2 11 6 27 15 SSW 1021,8 20 60 0,0
22.09.2018 14:00:00 20,1 7,8 26,1 18,8 19,2 7 4 20 11 SW 1022,5 20 56 0,0
22.09.2018 13:00:00 18,7 7,5 23,7 18,8 19,2 10 5 17 9 S 1022,9 20 58 0,0
22.09.2018 12:00:00 16,4 10,0 20,4 18,9 19,2 6 3 16 9 SE 1023,4 20 57 0,0
22.09.2018 11:00:00 12,1 11,6 12,5 19,0 19,2 8 4 14 8 ESE 1024,7 20 26 0,0
22.09.2018 10:00:00 9,4 8,9 9,0 19,0 19,2 4 2 8 4 E 1025,4 0,8 5 0,0
22.09.2018 09:00:00 8,4 8,0 8,4 19,1 19,2 2 1 7 4 SSE 1025,5 0,2 0 0,0
22.09.2018 08:00:00 8,2 7,8 7,9 19,2 19,2 5 3 9 5 ESE 1025,5 0,2 0 0,2
22.09.2018 07:00:00 8,0 7,6 7,4 19,2 19,2 5 3 9 5 E 1025,0 0,3 0 0,0
22.09.2018 06:00:00 8,1 7,7 7,9 19,3 19,2 2 1 8 4 SE 1025,2 0,2 0 0,0
22.09.2018 05:00:00 7,9 7,5 5,7 19,4 19,2 3 2 8 4 E 1025,7 0,2 0 0,0
22.09.2018 04:00:00 7,0 6,6 5,5 19,5 19,2 3 1 5 3 E 1025,8 0,5 0 0,0
22.09.2018 03:00:00 7,4 7,0 4,6 19,5 19,2 2 1 6 3 ESE 1026,1 0,5 0 0,0
22.09.2018 02:00:00 6,9 6,3 4,3 19,6 19,2 0 0 5 3 N 1026,1 0,3 0 0,0
22.09.2018 01:00:00 7,8 7,2 5,2 19,6 19,1 3 2 6 4 E 1025,9 0,2 0 0,0
22.09.2018 00:00:00 8,8 8,0 5,3 19,6 19,2 2 1 5 3 ESE 1025,4 0,2 0 0,0
21.09.2018 23:00:00 10,2 9,4 6,9 19,6 19,2 0 0 4 2 N 1025,0 10 0 0,0
21.09.2018 22:00:00 11,3 10,0 9,0 19,7 19,2 0 0 4 2 N 1024,0 12 0 0,0
21.09.2018 21:00:00 12,4 10,5 10,4 19,7 19,2 0 0 3 2 N 1023,1 20 0 0,0
21.09.2018 20:00:00 13,7 11,6 13,2 19,7 19,2 0 0 8 4 N 1022,3 19 0 0,0
21.09.2018 19:00:00 14,7 11,3 14,6 19,7 19,2 2 1 10 6 WSW 1021,7 20 0 0,0
21.09.2018 18:00:00 15,1 11,3 15,8 19,7 19,2 5 3 15 8 W 1021,0 20 2 0,0
21.09.2018 17:00:00 14,8 11,8 16,2 19,7 19,2 3 2 15 8 W 1020,6 20 0 0,0
21.09.2018 16:00:00 14,1 12,1 13,2 19,7 19,2 5 3 18 10 SW 1020,2 20 0 0,0
21.09.2018 15:00:00 12,4 11,6 12,8 19,7 19,1 5 3 21 11 NW 1019,8 6 0 1,8
21.09.2018 14:00:00 12,8 11,9 13,1 19,8 19,2 11 6 33 18 NW 1019,4 7 0 2,9
21.09.2018 13:00:00 16,7 14,9 16,1 19,8 19,1 12 6 37 20 WNW 1017,5 6 0 2,0
21.09.2018 12:00:00 19,1 15,0 19,7 19,8 19,2 19 10 37 20 SSW 1016,4 20 0 0,0
21.09.2018 11:00:00 19,1 14,4 19,3 19,9 19,2 16 8 30 16 SSW 1016,4 20 0 0,0
21.09.2018 10:00:00 18,2 14,1 17,6 19,9 19,2 12 6 31 17 SSW 1015,9 20 0 0,0
21.09.2018 09:00:00 17,2 14,1 15,6 20,0 19,2 6 3 19 10 SW 1016,2 20 0 0,0
21.09.2018 08:00:00 16,8 13,9 14,7 20,0 19,2 5 3 16 9 SW 1015,4 20 0 0,0
21.09.2018 07:00:00 16,0 14,0 13,0 20,1 19,2 3 2 9 5 WSW 1014,9 20 0 0,0
21.09.2018 06:00:00 15,2 14,2 12,4 20,1 19,2 4 2 14 7 SE 1014,5 20 0 0,0
21.09.2018 05:00:00 16,0 14,2 13,1 20,1 19,2 0 0 14 8 N 1014,6 20 0 0,0
21.09.2018 04:00:00 15,3 13,7 12,3 20,1 19,2 0 0 13 7 N 1015,0 20 0 0,0
21.09.2018 03:00:00 14,5 12,9 11,5 20,1 19,2 9 5 16 8 WNW 1015,2 20 0 0,0
21.09.2018 02:00:00 15,1 13,0 11,2 20,1 19,2 5 3 9 5 E 1014,6 20 0 0,0
21.09.2018 01:00:00 15,3 13,7 12,0 20,1 19,2 5 3 9 5 NE 1014,8 20 0 0,0
21.09.2018 00:00:00 15,7 13,7 12,3 20,1 19,2 3 1 11 6 E 1015,2 20 0 0,0
20.09.2018 23:00:00 16,9 14,7 13,4 20,0 19,2 3 2 6 3 E 1015,4 20 0 0,0
20.09.2018 22:00:00 18,5 15,0 14,4 20,0 19,2 5 3 8 4 E 1015,4 20 0 0,0
20.09.2018 21:00:00 20,4 14,3 16,0 19,9 19,2 3 2 7 4 SSE 1015,1 20 0 0,0
20.09.2018 20:00:00 24,5 14,3 18,6 19,8 19,2 4 2 13 7 SSW 1014,6 20 3 0,0
20.09.2018 19:00:00 27,5 14,2 26,3 19,7 19,1 5 3 17 9 SW 1014,4 20 60 0,0
20.09.2018 18:00:00 28,7 14,1 29,5 19,6 19,1 8 4 19 11 SW 1014,5 20 60 0,0
20.09.2018 17:00:00 29,1 13,7 32,4 19,6 19,1 9 5 26 14 SSW 1015,0 20 60 0,0
20.09.2018 16:00:00 28,7 13,0 33,8 19,5 19,1 13 7 27 14 SSW 1015,7 20 60 0,0
20.09.2018 15:00:00 28,6 14,4 34,0 19,5 19,1 9 5 23 12 S 1016,3 20 60 0,0
20.09.2018 14:00:00 27,3 14,7 31,9 19,5 19,1 7 4 20 11 SW 1017,3 20 53 0,0
20.09.2018 13:00:00 25,3 14,7 28,4 19,6 19,2 4 2 14 8 N 1018,6 20 47 0,0
20.09.2018 12:00:00 24,2 14,6 28,5 19,6 19,2 5 3 13 7 N 1019,4 20 60 0,0
20.09.2018 11:00:00 20,9 13,8 21,3 19,7 19,1 6 4 11 6 E 1020,5 20 56 0,0
20.09.2018 10:00:00 16,3 13,4 15,6 19,8 19,2 4 2 12 6 E 1021,3 20 58 0,0
20.09.2018 09:00:00 12,5 12,0 7,6 19,8 19,1 8 4 14 8 E 1021,8 16 60 0,0
20.09.2018 08:00:00 9,5 9,0 5,8 19,9 19,1 4 2 7 4 ENE 1022,4 7 2 0,0
20.09.2018 07:00:00 9,6 9,0 6,4 20,0 19,1 2 1 7 4 ESE 1022,6 9 0 0,0
20.09.2018 06:00:00 10,2 9,6 7,6 20,0 19,1 2 1 6 4 NW 1022,8 8 0 0,0
20.09.2018 05:00:00 10,6 10,1 7,1 20,1 19,2 3 1 6 3 E 1022,6 9 0 0,0
20.09.2018 04:00:00 10,5 9,7 7,1 20,1 19,2 4 2 7 4 NE 1022,6 12 0 0,0
20.09.2018 03:00:00 11,1 10,3 7,0 20,1 19,2 3 1 3 2 E 1022,8 2,1 0 0,0
20.09.2018 02:00:00 11,9 11,1 7,5 20,2 19,2 2 1 5 3 E 1022,8 7 0 0,0
20.09.2018 01:00:00 12,8 12,0 8,2 20,1 19,1 2 1 5 3 NE 1022,9 15 0 0,0
20.09.2018 00:00:00 13,4 12,3 9,1 20,1 19,1 4 2 6 4 E 1022,8 18 0 0,0
19.09.2018 23:00:00 14,7 13,1 9,8 20,1 19,1 2 1 5 3 SE 1022,3 20 0 0,0
19.09.2018 22:00:00 16,4 12,7 11,3 20,0 19,1 0 0 4 2 N 1021,7 20 0 0,0
19.09.2018 21:00:00 18,7 12,9 13,6 20,0 19,2 0 0 5 3 N 1020,8 20 0 0,0
19.09.2018 20:00:00 22,5 13,0 18,2 19,9 19,1 2 1 16 9 W 1019,8 20 3 0,0
19.09.2018 19:00:00 25,8 13,3 24,9 19,8 19,1 9 5 22 12 WNW 1019,1 20 53 0,0
19.09.2018 18:00:00 27,5 14,2 27,1 19,7 19,1 7 4 22 12 W 1018,4 20 46 0,0
19.09.2018 17:00:00 27,7 14,7 29,1 19,7 19,1 10 5 23 12 W 1018,6 20 56 0,0
19.09.2018 16:00:00 26,6 15,0 28,0 19,7 19,1 9 5 24 13 W 1019,2 20 27 0,0
19.09.2018 15:00:00 28,0 15,0 28,4 19,6 19,2 10 5 27 15 WSW 1019,1 20 40 0,0
19.09.2018 14:00:00 26,5 14,9 28,4 19,6 19,1 11 6 23 12 W 1019,6 20 34 0,0
19.09.2018 13:00:00 26,2 15,9 31,0 19,7 19,1 7 4 31 17 WSW 1019,7 20 54 0,0
19.09.2018 12:00:00 24,0 16,0 28,7 19,7 19,1 4 2 11 6 ENE 1020,3 20 60 0,0
19.09.2018 11:00:00 21,3 16,0 22,7 19,7 19,1 3 1 8 5 ENE 1021,1 20 58 0,0
19.09.2018 10:00:00 16,4 15,4 14,5 19,8 19,1 0 0 5 3 N 1021,6 20 32 0,0
19.09.2018 09:00:00 13,6 13,1 11,7 19,9 19,1 0 0 9 5 N 1021,5 19 23 0,0
19.09.2018 08:00:00 11,4 10,9 9,0 19,9 19,1 4 2 7 4 E 1021,2 9 3 0,2
19.09.2018 07:00:00 11,5 11,0 8,7 20,0 19,1 0 0 8 4 N 1020,9 8 0 0,0
19.09.2018 06:00:00 11,7 11,1 9,1 20,0 19,1 0 0 6 3 N 1020,6 6 0 0,0
19.09.2018 05:00:00 12,3 11,7 9,7 20,1 19,2 2 1 10 6 W 1020,5 9 0 0,0
19.09.2018 04:00:00 12,6 12,0 10,0 20,1 19,1 3 1 8 4 NNE 1019,9 12 0 0,0
19.09.2018 03:00:00 12,7 12,2 9,9 20,1 19,1 5 3 8 4 ESE 1019,8 8 0 0,0
19.09.2018 02:00:00 13,1 12,5 9,6 20,1 19,2 2 1 5 3 E 1019,6 0,4 0 0,0
19.09.2018 01:00:00 13,5 12,7 11,0 20,1 19,2 4 2 5 3 ESE 1019,6 2,9 0 0,0
19.09.2018 00:00:00 14,8 14,2 10,8 20,1 19,2 3 1 6 4 SE 1019,2 7 0 0,0
18.09.2018 23:00:00 15,7 14,9 11,9 20,0 19,2 0 0 5 3 N 1019,1 8 0 0,0
18.09.2018 22:00:00 16,9 15,8 13,8 20,0 19,2 2 1 9 5 WNW 1018,9 8 0 0,0
18.09.2018 21:00:00 18,1 16,4 16,1 20,0 19,2 0 0 7 4 N 1018,5 18 0 0,2
18.09.2018 20:00:00 19,5 15,8 18,5 19,9 19,1 3 2 12 6 NW 1017,7 20 0 0,0
18.09.2018 19:00:00 20,7 14,8 18,7 19,8 19,1 8 4 14 8 NNW 1016,8 20 0 0,0
18.09.2018 18:00:00 23,7 14,1 22,0 19,7 19,1 5 3 12 6 NNW 1016,1 20 0 0,0
18.09.2018 17:00:00 24,4 14,8 25,3 19,7 19,1 7 4 16 9 W 1015,9 20 0 0,0
18.09.2018 16:00:00 25,1 14,5 26,9 19,6 19,2 8 5 30 16 W 1016,0 20 21 0,0
18.09.2018 15:00:00 26,3 14,4 28,8 19,6 19,2 8 4 21 12 WSW 1015,8 20 33 0,0
18.09.2018 14:00:00 26,2 15,3 27,3 19,6 19,1 8 5 23 13 SW 1016,1 20 - -
18.09.2018 13:00:00 26,0 13,8 28,7 19,6 19,1 10 5 22 12 WSW 1016,0 20 49 0,0
18.09.2018 12:00:00 25,2 13,7 28,1 19,6 19,2 14 8 25 14 SSW 1016,3 20 50 0,0
18.09.2018 11:00:00 25,6 13,8 27,9 19,6 19,1 9 5 19 11 SW 1015,8 20 60 0,0
18.09.2018 10:00:00 22,0 12,8 21,8 19,7 19,2 4 2 12 6 E 1016,0 20 54 0,0
18.09.2018 09:00:00 18,9 11,9 15,0 19,7 19,2 8 5 15 8 E 1016,0 20 14 0,0
18.09.2018 08:00:00 17,4 11,7 14,2 19,7 19,2 5 3 10 5 SSE 1016,1 20 0 0,0
18.09.2018 07:00:00 18,3 10,9 14,1 19,7 19,2 3 1 9 5 NE 1015,7 20 0 0,0
18.09.2018 06:00:00 17,4 10,0 14,1 19,7 19,2 8 4 14 7 ENE 1015,6 20 0 0,0
18.09.2018 05:00:00 20,4 10,2 18,3 19,8 19,2 9 5 23 13 SE 1014,8 20 0 0,0
18.09.2018 04:00:00 21,5 10,6 19,8 19,8 19,2 14 7 30 16 SSE 1014,4 20 0 0,0
18.09.2018 03:00:00 21,5 11,2 15,4 19,8 19,2 16 9 27 14 S 1014,5 20 0 0,0
18.09.2018 02:00:00 19,6 11,9 16,0 19,7 19,2 6 4 13 7 ENE 1015,0 20 0 0,0
18.09.2018 01:00:00 20,4 12,4 14,3 19,7 19,2 8 4 19 10 SSE 1014,9 20 0 0,0
18.09.2018 00:00:00 16,8 12,3 13,3 19,7 19,2 5 3 10 5 E 1015,3 20 0 0,0
17.09.2018 23:00:00 16,8 12,1 13,2 19,6 19,2 4 2 8 4 E 1015,2 20 0 0,0
17.09.2018 22:00:00 18,0 12,2 14,0 19,6 19,2 5 3 12 6 ESE 1014,8 20 0 0,0
17.09.2018 21:00:00 20,4 12,1 15,1 19,4 19,2 4 2 5 3 E 1014,2 20 0 0,0
17.09.2018 20:00:00 24,9 11,5 18,3 19,3 19,2 0 0 18 10 N 1013,2 20 6 0,0
17.09.2018 19:00:00 28,6 11,6 27,7 19,3 19,2 11 6 24 13 S 1012,7 20 60 0,0
17.09.2018 18:00:00 29,9 10,4 30,8 19,2 19,2 11 6 24 13 SW 1012,7 20 60 0,0
17.09.2018 17:00:00 30,4 10,4 33,6 19,1 19,2 13 7 29 16 S 1013,1 20 60 0,0
17.09.2018 16:00:00 29,9 10,9 35,6 19,0 19,2 12 6 26 14 S 1014,0 20 60 0,0
17.09.2018 15:00:00 29,3 11,4 34,8 19,0 19,2 12 6 28 15 SW 1014,7 20 60 0,0
17.09.2018 14:00:00 28,4 11,5 35,1 19,0 19,2 12 7 25 14 SW 1015,6 20 60 0,0
17.09.2018 13:00:00 27,6 11,2 34,0 19,1 19,2 14 7 24 13 S 1016,5 20 60 0,0
17.09.2018 12:00:00 26,8 9,2 31,0 19,1 19,2 12 7 21 11 SSW 1017,4 20 60 0,0
17.09.2018 11:00:00 23,8 10,1 24,8 19,1 19,2 3 2 14 7 ESE 1018,0 20 60 0,0
17.09.2018 10:00:00 18,9 9,9 17,1 19,2 19,2 7 4 16 9 ESE 1018,9 20 60 0,0
17.09.2018 09:00:00 13,7 8,9 10,0 19,3 19,2 11 6 18 10 ESE 1019,9 20 60 0,0
17.09.2018 08:00:00 10,1 8,0 8,1 19,3 19,2 6 3 12 6 E 1020,7 20 6 0,0
17.09.2018 07:00:00 10,2 7,8 8,7 19,4 19,2 7 4 16 9 ESE 1020,7 20 0 0,0
17.09.2018 06:00:00 10,4 8,2 8,9 19,5 19,2 9 5 16 9 ESE 1020,5 20 0 0,0
17.09.2018 05:00:00 10,3 8,4 5,5 19,5 19,2 9 5 14 8 E 1021,0 20 0 0,0
17.09.2018 04:00:00 9,7 7,3 6,4 19,5 19,2 4 2 9 5 ENE 1021,3 20 0 0,0
17.09.2018 03:00:00 10,6 8,0 7,3 19,5 19,2 5 3 10 6 E 1021,3 20 0 0,0
17.09.2018 02:00:00 10,9 8,8 6,3 19,6 19,3 8 5 11 6 E 1021,6 20 0 0,0
17.09.2018 01:00:00 9,9 7,1 6,1 19,6 19,3 5 3 7 4 E 1022,0 20 0 0,0
17.09.2018 00:00:00 10,8 7,7 6,7 19,5 19,2 2 1 6 3 E 1021,9 20 0 0,0
16.09.2018 23:00:00 12,8 8,1 7,3 19,5 19,3 4 2 8 5 E 1021,7 20 0 0,0

tt = temperature
td = dewpoint
tt 5cm = temperature 5cm
tt -20cm = temperature -20cm
tt -100cm = temperature -100cm
ff = wind speed
fx = gusts
dd = wind direction
ppp = reduced air pressure
vv = visibility
sd = sunshine duration
rr = precipitation

Next stations